Terminal Aerodrome Forecast
Issued by NWS Cleveland, OH

Home | Current Version | Previous Version | Graphics & Text | Print | Product List | Glossary On
Versions: 1 2 3 4 5 6 7 8 9 10 11 12 13 14 15 16 17 18 19 20 21
000
FTUS41 KCLE 252300
TAFTOL
TAF
KTOL 252320Z 2600/2624 25011G16KT P6SM SCT020 BKN250
     FM260100 25007KT P6SM SCT020 OVC045
     FM260900 30004KT 5SM -RA BR OVC025
     FM261200 33007KT 3SM -RASN BR OVC008
     FM261600 30008KT 6SM -SN BR OVC015
     FM261800 30010KT P6SM OVC025
     FM262000 28010KT P6SM BKN045=

USA.gov is the U.S. government's official web portal to all federal, state and local government web resources and services.